CNH660 UKFF-HRYR

Flight info

Callsign CNH660
Flight time N/A
Altitude 33000
Route IRGAK/N0461F330 UM855 TOMBI M855 MAROS/N0464F350 M855 RASDA A16 CVO W8 KHG W601 DESDO P557 NUBAR L554 PASAB/N0463F370 L554 KUNDI/N0456F390 L554 JUB L567 OVELA UB527 ASEKA/N0454F400 UB527 EGREK EGREK2A
Aircraft IL76/H-SDFGHIM1RTUWXY/LB1

Departure

Time 2026-04-25 23:46
Airport Simferopol International Airport (UKFF)

Arrival

Time N/A
Airport Kigali International Airport (HRYR)
Time Latitude Longitude Altitude Speed Heading
2026-04-25 23:37 45.03383 33.97602 613 ft 0 kts 14°
2026-04-25 23:42 45.03452 33.97585 615 ft 31 kts 331°
2026-04-25 23:43 45.04276 33.97457 607 ft 0 kts 266°
2026-04-25 23:43 45.04278 33.97456 611 ft 0 kts 265°
2026-04-25 23:43 45.04277 33.97423 605 ft 0 kts 265°
2026-04-25 23:43 45.06643 33.97816 583 ft 0 kts 265°
2026-04-25 23:44 45.06776 33.97914 584 ft 0 kts 192°
2026-04-25 23:44 45.06671 33.97862 585 ft 40 kts 194°
2026-04-25 23:44 45.06218 33.97719 588 ft 89 kts 192°
2026-04-25 23:44 45.05480 33.97470 590 ft 128 kts 194°
2026-04-25 23:45 45.04503 33.97143 597 ft 157 kts 193°
2026-04-25 23:45 45.03378 33.96759 702 ft 168 kts 193°
2026-04-25 23:45 45.02304 33.96415 1074 ft 157 kts 192°
2026-04-25 23:45 45.01182 33.96108 1148 ft 173 kts 189°
2026-04-25 23:46 44.99942 33.95847 1387 ft 186 kts 188°
2026-04-25 23:46 44.98609 33.95589 1692 ft 201 kts 188°
2026-04-25 23:46 44.90890 33.93861 4103 ft 217 kts 189°
2026-04-25 23:46 44.67308 33.87678 11067 ft 220 kts 193°
2026-04-25 23:47 44.42416 33.79211 11116 ft 240 kts 194°
2026-04-25 23:47 44.17327 33.71632 19483 ft 231 kts 192°
2026-04-25 23:47 43.91082 33.63205 19941 ft 235 kts 194°
2026-04-25 23:47 43.66669 33.54304 20833 ft 243 kts 195°
2026-04-25 23:48 43.39653 33.46098 23310 ft 238 kts 190°
2026-04-25 23:48 43.20358 33.41915 29629 ft 230 kts 188°
2026-04-25 23:48 43.18602 33.41565 28342 ft 284 kts 189°
2026-04-25 23:48 43.16618 33.41208 28188 ft 286 kts 185°
2026-04-25 23:49 43.14657 33.40939 28314 ft 284 kts 187°
2026-04-25 23:49 43.12684 33.40610 27879 ft 306 kts 186°
2026-04-25 23:49 43.10414 33.40329 27027 ft 335 kts 186°
2026-04-25 23:49 43.08088 33.39981 26631 ft 356 kts 187°
2026-04-25 23:50 43.05601 33.39536 26729 ft 353 kts 188°
2026-04-25 23:50 43.03124 33.39128 26160 ft 377 kts 186°
2026-04-25 23:50 43.00441 33.38775 25724 ft 392 kts 187°
2026-04-25 23:50 42.97863 33.37694 25867 ft 389 kts 217°
2026-04-25 23:51 42.96238 33.35323 27996 ft 323 kts 233°
2026-04-25 23:51 42.94800 33.32844 26706 ft 376 kts 231°
2026-04-25 23:51 42.93119 33.30040 26427 ft 386 kts 230°
2026-04-25 23:51 42.91397 33.27177 26309 ft 397 kts 230°
2026-04-25 23:52 42.89640 33.24260 26334 ft 405 kts 230°
2026-04-25 23:52 42.87832 33.21256 26332 ft 412 kts 230°
2026-04-25 23:52 42.85992 33.18203 26331 ft 420 kts 230°
2026-04-25 23:52 42.84114 33.15091 26331 ft 427 kts 230°
2026-04-25 23:53 42.82223 33.11956 26328 ft 433 kts 230°
2026-04-25 23:53 42.80307 33.08783 26325 ft 434 kts 230°
2026-04-25 23:53 42.78385 33.05600 26325 ft 436 kts 230°
2026-04-25 23:53 42.76448 33.02398 26324 ft 438 kts 230°
2026-04-25 23:54 42.74530 32.99226 26324 ft 440 kts 231°
2026-04-25 23:54 42.72577 32.96000 26324 ft 441 kts 231°
2026-04-25 23:54 42.70628 32.92781 26323 ft 443 kts 231°
2026-04-25 23:54 42.68671 32.89554 26323 ft 444 kts 231°
2026-04-25 23:55 42.66709 32.86317 26323 ft 446 kts 231°
2026-04-25 23:55 42.64746 32.83083 26323 ft 447 kts 231°
2026-04-25 23:55 42.62780 32.79845 26323 ft 448 kts 231°
2026-04-25 23:55 42.60781 32.76554 26323 ft 448 kts 231°
2026-04-25 23:56 42.58805 32.73304 26323 ft 449 kts 231°
2026-04-25 23:56 42.56819 32.70039 26323 ft 450 kts 231°
2026-04-25 23:56 42.54707 32.66922 26306 ft 450 kts 221°
2026-04-25 23:56 42.53334 32.65489 26335 ft 449 kts 215°
2026-04-25 23:58 42.52123 32.64408 26338 ft 449 kts 212°
2026-04-25 23:58 42.49390 32.62363 26326 ft 450 kts 207°
2026-04-25 23:58 42.47658 32.61237 26326 ft 450 kts 205°
2026-04-25 23:58 42.45875 32.60153 26323 ft 450 kts 204°
2026-04-25 23:59 42.43005 32.58524 26323 ft 451 kts 202°
2026-04-25 23:59 42.40088 32.56950 26323 ft 451 kts 201°
2026-04-25 23:59 42.37175 32.55425 26323 ft 451 kts 201°
2026-04-25 23:59 42.34298 32.53944 26323 ft 452 kts 201°
2026-04-26 00:00 42.31371 32.52451 26323 ft 452 kts 201°
2026-04-26 00:00 42.28435 32.50964 26323 ft 452 kts 201°
2026-04-26 00:00 42.25471 32.49467 26323 ft 452 kts 201°
2026-04-26 00:00 42.22525 32.47983 26323 ft 452 kts 201°
2026-04-26 00:01 42.19565 32.46494 26323 ft 452 kts 201°
2026-04-26 00:01 42.16610 32.45010 26323 ft 453 kts 201°
2026-04-26 00:01 42.13665 32.43533 26323 ft 453 kts 201°
2026-04-26 00:01 42.10739 32.42067 26323 ft 453 kts 201°
2026-04-26 00:02 42.07787 32.40590 26323 ft 453 kts 201°
2026-04-26 00:02 42.04816 32.39104 26323 ft 453 kts 201°
2026-04-26 00:02 42.01853 32.37625 26322 ft 453 kts 201°
2026-04-26 00:02 41.98900 32.36151 26322 ft 453 kts 201°
2026-04-26 00:03 41.95964 32.34687 26322 ft 453 kts 200°
2026-04-26 00:03 41.92984 32.33203 26322 ft 453 kts 200°
2026-04-26 00:03 41.90040 32.31739 26321 ft 449 kts 200°
2026-04-26 00:03 41.87120 32.30288 26323 ft 446 kts 200°
2026-04-26 00:04 41.84520 32.28997 26322 ft 447 kts 200°
2026-04-26 00:04 41.81595 32.27546 26323 ft 448 kts 200°
2026-04-26 00:04 41.78666 32.26094 26323 ft 448 kts 200°
2026-04-26 00:04 41.75731 32.24641 26323 ft 449 kts 200°
2026-04-26 00:05 41.72813 32.23198 26323 ft 450 kts 200°
2026-04-26 00:05 41.69852 32.21735 26323 ft 450 kts 200°
2026-04-26 00:05 41.67031 32.20342 26322 ft 450 kts 200°
2026-04-26 00:05 41.64084 32.18888 26322 ft 451 kts 200°
2026-04-26 00:06 41.61130 32.17433 26322 ft 451 kts 200°
2026-04-26 00:06 41.58213 32.15997 26322 ft 451 kts 200°
2026-04-26 00:06 41.55243 32.14536 26322 ft 451 kts 200°
2026-04-26 00:06 41.52294 32.13088 26322 ft 451 kts 200°
2026-04-26 00:07 41.49339 32.11637 26323 ft 454 kts 200°
2026-04-26 00:07 41.46345 32.10169 26322 ft 456 kts 200°
2026-04-26 00:07 41.43347 32.08701 26322 ft 458 kts 200°
2026-04-26 00:07 41.42889 32.08477 26322 ft 459 kts 200°
2026-04-26 00:08 41.42680 32.08374 26322 ft 459 kts 200°
2026-04-26 00:08 41.41128 32.07615 26322 ft 459 kts 200°
2026-04-26 00:08 41.38731 32.06443 26322 ft 460 kts 200°
2026-04-26 00:10 41.36137 32.05177 26303 ft 462 kts 200°
2026-04-26 00:10 41.33125 32.03706 26318 ft 462 kts 200°
2026-04-26 00:10 41.30100 32.02230 26317 ft 462 kts 200°
2026-04-26 00:11 41.27082 32.00760 26317 ft 463 kts 200°
2026-04-26 00:11 41.24079 31.99298 26317 ft 463 kts 200°
2026-04-26 00:11 41.21045 31.97822 26317 ft 463 kts 200°
2026-04-26 00:11 41.18025 31.96355 26317 ft 464 kts 200°
2026-04-26 00:12 41.14987 31.94881 26315 ft 460 kts 200°
2026-04-26 00:12 41.12008 31.93436 26315 ft 454 kts 200°
2026-04-26 00:12 41.09065 31.92011 26316 ft 452 kts 200°
2026-04-26 00:12 41.06088 31.90570 26317 ft 452 kts 200°
2026-04-26 00:13 41.03127 31.89139 26317 ft 452 kts 200°
2026-04-26 00:13 41.00167 31.87709 26317 ft 452 kts 200°
2026-04-26 00:13 40.97220 31.86287 26317 ft 452 kts 200°
2026-04-26 00:13 40.94285 31.84872 26317 ft 452 kts 200°
2026-04-26 00:14 40.91314 31.83441 26317 ft 452 kts 200°
2026-04-26 00:14 40.88374 31.82027 26317 ft 452 kts 200°
2026-04-26 00:14 40.85404 31.80599 26317 ft 452 kts 200°
2026-04-26 00:14 40.82446 31.79178 26317 ft 452 kts 200°
2026-04-26 00:15 40.79503 31.77767 26315 ft 449 kts 200°
2026-04-26 00:15 40.76572 31.76362 26316 ft 445 kts 200°
2026-04-26 00:15 40.73679 31.74977 26315 ft 441 kts 200°
2026-04-26 00:15 40.70795 31.73597 26314 ft 438 kts 200°
2026-04-26 00:16 40.67951 31.72237 26314 ft 434 kts 200°
2026-04-26 00:16 40.65143 31.70896 26313 ft 431 kts 200°
2026-04-26 00:16 40.62320 31.69550 26313 ft 428 kts 200°
2026-04-26 00:16 40.59542 31.68226 26313 ft 425 kts 200°
2026-04-26 00:17 40.56779 31.66909 26313 ft 422 kts 200°
2026-04-26 00:17 40.54004 31.65589 26313 ft 419 kts 200°
2026-04-26 00:17 40.51270 31.64289 26313 ft 416 kts 200°
2026-04-26 00:17 40.48560 31.63002 26313 ft 413 kts 200°
2026-04-26 00:18 40.45855 31.61718 26313 ft 411 kts 200°
2026-04-26 00:18 40.43179 31.60449 26313 ft 408 kts 200°
2026-04-26 00:18 40.40500 31.59180 26315 ft 407 kts 200°
2026-04-26 00:18 40.37819 31.57910 26319 ft 410 kts 200°
2026-04-26 00:19 40.35151 31.56648 26319 ft 413 kts 200°
2026-04-26 00:19 40.32410 31.55353 26319 ft 416 kts 200°
2026-04-26 00:19 40.29706 31.54076 26319 ft 419 kts 200°
2026-04-26 00:19 40.26934 31.52768 26319 ft 422 kts 200°
2026-04-26 00:20 40.24168 31.51464 26319 ft 425 kts 200°
2026-04-26 00:20 40.21387 31.50154 26319 ft 427 kts 200°
2026-04-26 00:20 40.18561 31.48825 26319 ft 430 kts 200°
2026-04-26 00:20 40.15752 31.47504 26320 ft 433 kts 200°
2026-04-26 00:21 40.12913 31.46171 26321 ft 437 kts 200°
2026-04-26 00:21 40.10007 31.44807 26320 ft 442 kts 200°
2026-04-26 00:21 40.07125 31.43455 26319 ft 446 kts 200°
2026-04-26 00:21 40.04157 31.42065 26318 ft 450 kts 200°
2026-04-26 00:22 40.01226 31.40693 26318 ft 453 kts 200°
2026-04-26 00:22 39.98233 31.39294 26318 ft 455 kts 200°
2026-04-26 00:22 39.95245 31.37898 26317 ft 457 kts 200°
2026-04-26 00:22 39.92209 31.36481 26317 ft 459 kts 200°
2026-04-26 00:23 39.89230 31.35092 26317 ft 460 kts 200°
2026-04-26 00:23 39.86170 31.33666 26317 ft 461 kts 199°
2026-04-26 00:23 39.83163 31.32267 26317 ft 462 kts 199°
2026-04-26 00:23 39.80155 31.30868 26317 ft 462 kts 199°
2026-04-26 00:24 39.77090 31.29445 26317 ft 462 kts 199°
2026-04-26 00:24 39.74072 31.28044 26317 ft 463 kts 199°
2026-04-26 00:24 39.71046 31.26641 26317 ft 463 kts 199°
2026-04-26 00:24 39.68000 31.25230 26317 ft 463 kts 199°
2026-04-26 00:25 39.64957 31.23821 26317 ft 463 kts 199°
2026-04-26 00:25 39.61921 31.22417 26317 ft 463 kts 199°
2026-04-26 00:25 39.58887 31.21016 26317 ft 463 kts 199°
2026-04-26 00:25 39.55847 31.19613 26317 ft 463 kts 199°
2026-04-26 00:26 39.52778 31.18198 26317 ft 463 kts 199°
2026-04-26 00:26 39.49769 31.16812 26317 ft 463 kts 199°
2026-04-26 00:26 39.46697 31.15398 26317 ft 463 kts 199°
2026-04-26 00:26 39.43652 31.13998 26317 ft 464 kts 199°
2026-04-26 00:27 39.40619 31.12605 26317 ft 464 kts 199°
2026-04-26 00:27 39.37546 31.11195 26317 ft 464 kts 199°
2026-04-26 00:27 39.34533 31.09813 26317 ft 464 kts 199°
2026-04-26 00:27 39.31487 31.08418 26317 ft 464 kts 199°
2026-04-26 00:28 39.28441 31.07024 26317 ft 464 kts 199°
2026-04-26 00:28 39.25408 31.05637 26317 ft 464 kts 199°
2026-04-26 00:28 39.22321 31.04227 26317 ft 464 kts 199°
2026-04-26 00:28 39.19300 31.02848 26317 ft 464 kts 199°
2026-04-26 00:29 39.16237 31.01452 26317 ft 464 kts 199°
2026-04-26 00:29 39.13233 31.00083 26317 ft 464 kts 199°
2026-04-26 00:29 39.10174 30.98691 26317 ft 464 kts 199°
2026-04-26 00:29 39.07142 30.97312 26316 ft 464 kts 199°
2026-04-26 00:30 39.04104 30.95932 26316 ft 464 kts 199°
2026-04-26 00:30 39.01043 30.94543 26316 ft 464 kts 199°
2026-04-26 00:30 38.98004 30.93164 26316 ft 464 kts 199°
2026-04-26 00:30 38.94917 30.91766 26316 ft 464 kts 199°
2026-04-26 00:31 38.91864 30.90384 26316 ft 464 kts 199°
2026-04-26 00:31 38.88851 30.89021 26316 ft 464 kts 199°
2026-04-26 00:31 38.85803 30.87644 26317 ft 464 kts 199°
2026-04-26 00:31 38.82732 30.86258 26317 ft 464 kts 199°
2026-04-26 00:32 38.79979 30.85016 26317 ft 464 kts 199°
2026-04-26 00:32 38.76666 30.83523 26317 ft 464 kts 199°
2026-04-26 00:32 38.70570 30.80781 26317 ft 464 kts 199°
2026-04-26 00:33 38.67520 30.79410 26317 ft 464 kts 199°
2026-04-26 00:33 38.64445 30.78029 26317 ft 464 kts 199°
2026-04-26 00:33 38.61405 30.76666 26317 ft 464 kts 199°
2026-04-26 00:33 38.58346 30.75295 26317 ft 464 kts 199°
2026-04-26 00:34 38.55303 30.73932 26317 ft 464 kts 199°
2026-04-26 00:34 38.52249 30.72566 26317 ft 464 kts 199°
2026-04-26 00:34 38.49206 30.71206 26317 ft 464 kts 199°
2026-04-26 00:34 38.46155 30.69844 26317 ft 464 kts 199°
2026-04-26 00:35 38.43142 30.68499 26317 ft 464 kts 199°
2026-04-26 00:35 38.40077 30.67133 26317 ft 464 kts 199°
2026-04-26 00:35 38.37022 30.65773 26317 ft 464 kts 199°
2026-04-26 00:35 38.33957 30.64409 26317 ft 464 kts 199°
2026-04-26 00:36 38.30912 30.63056 26317 ft 464 kts 199°
2026-04-26 00:36 38.27822 30.62044 26282 ft 462 kts 184°
2026-04-26 00:36 38.24593 30.62193 26361 ft 460 kts 177°
2026-04-26 00:36 38.21403 30.62437 26320 ft 461 kts 176°
2026-04-26 00:37 38.18176 30.62730 26316 ft 462 kts 176°
2026-04-26 00:37 38.14986 30.63025 26317 ft 463 kts 176°
2026-04-26 00:37 38.11753 30.63326 26317 ft 463 kts 176°
2026-04-26 00:37 38.08551 30.63627 26317 ft 463 kts 176°
2026-04-26 00:38 38.05335 30.63930 26317 ft 464 kts 176°
2026-04-26 00:38 38.02089 30.64236 26317 ft 464 kts 176°
2026-04-26 00:38 37.98858 30.64540 26316 ft 464 kts 176°
2026-04-26 00:38 37.95640 30.64844 26316 ft 464 kts 176°
2026-04-26 00:39 37.92411 30.65148 26316 ft 464 kts 176°
2026-04-26 00:39 37.89192 30.65451 26316 ft 464 kts 176°
2026-04-26 00:39 37.85962 30.65754 26316 ft 464 kts 176°
2026-04-26 00:39 37.82748 30.66056 26316 ft 464 kts 176°
2026-04-26 00:40 37.79514 30.66360 26316 ft 464 kts 176°
2026-04-26 00:40 37.76270 30.66664 26316 ft 464 kts 176°
2026-04-26 00:40 37.73047 30.66966 26316 ft 464 kts 176°
2026-04-26 00:40 37.69821 30.67268 26316 ft 464 kts 176°
2026-04-26 00:41 37.66598 30.67569 26317 ft 464 kts 176°
2026-04-26 00:41 37.63362 30.67872 26317 ft 464 kts 176°
2026-04-26 00:41 37.60133 30.68173 26317 ft 464 kts 176°
2026-04-26 00:41 37.56920 30.68473 26317 ft 464 kts 176°
2026-04-26 00:42 37.53713 30.68772 26317 ft 464 kts 176°
2026-04-26 00:42 37.50487 30.69072 26318 ft 464 kts 176°
2026-04-26 00:42 37.47243 30.69374 26318 ft 464 kts 176°
2026-04-26 00:42 37.44038 30.69672 26318 ft 464 kts 176°
2026-04-26 00:43 37.40806 30.69972 26318 ft 464 kts 176°
2026-04-26 00:43 37.37568 30.70272 26318 ft 464 kts 176°
2026-04-26 00:43 37.34337 30.70572 26318 ft 465 kts 176°
2026-04-26 00:43 37.31101 30.70872 26318 ft 465 kts 176°
2026-04-26 00:44 37.27903 30.71168 26318 ft 465 kts 176°
2026-04-26 00:44 37.24663 30.71468 26318 ft 465 kts 176°
2026-04-26 00:44 37.21464 30.71763 26318 ft 465 kts 176°
2026-04-26 00:44 37.18219 30.72063 26318 ft 465 kts 176°
2026-04-26 00:45 37.14980 30.72361 26318 ft 465 kts 176°
2026-04-26 00:45 37.11749 30.72659 26318 ft 465 kts 176°
2026-04-26 00:45 37.08521 30.72957 26318 ft 465 kts 176°
2026-04-26 00:45 37.05281 30.73255 26318 ft 465 kts 176°
2026-04-26 00:46 37.02074 30.73549 26318 ft 465 kts 176°
2026-04-26 00:46 36.98821 30.73848 26318 ft 465 kts 176°
2026-04-26 00:46 36.95815 30.74124 26318 ft 465 kts 176°
2026-04-26 00:46 36.92413 30.74436 26318 ft 465 kts 176°
2026-04-26 00:47 36.89160 30.74734 26318 ft 465 kts 176°
2026-04-26 00:47 36.85921 30.75031 26319 ft 465 kts 176°
2026-04-26 00:47 36.82723 30.75323 26319 ft 465 kts 176°
2026-04-26 00:47 36.79507 30.75617 26319 ft 465 kts 176°
2026-04-26 00:48 36.76237 30.75915 26319 ft 465 kts 176°
2026-04-26 00:48 36.73025 30.76208 26319 ft 465 kts 176°
2026-04-26 00:48 36.70106 30.76475 26319 ft 465 kts 176°
2026-04-26 00:48 36.66582 30.76796 26319 ft 465 kts 176°
2026-04-26 00:49 36.63331 30.77091 26319 ft 465 kts 176°
2026-04-26 00:49 36.60101 30.77385 26319 ft 465 kts 176°
2026-04-26 00:49 36.56910 30.77675 26319 ft 465 kts 176°
2026-04-26 00:49 36.53674 30.77969 26319 ft 465 kts 176°
2026-04-26 00:50 36.50444 30.78262 26319 ft 465 kts 176°
2026-04-26 00:50 36.47180 30.78557 26319 ft 465 kts 176°
2026-04-26 00:50 36.43959 30.78849 26319 ft 465 kts 176°
2026-04-26 00:50 36.40767 30.79138 26319 ft 465 kts 176°
2026-04-26 00:51 36.37499 30.79433 26319 ft 465 kts 176°
2026-04-26 00:51 36.34282 30.79724 26319 ft 465 kts 176°
2026-04-26 00:51 36.31074 30.80013 26319 ft 465 kts 176°
2026-04-26 00:51 36.27827 30.80306 26319 ft 465 kts 176°
2026-04-26 00:52 36.24628 30.80594 26319 ft 465 kts 176°
2026-04-26 00:52 36.21397 30.80885 26319 ft 465 kts 176°
2026-04-26 00:52 36.18156 30.81177 26319 ft 465 kts 176°
2026-04-26 00:52 36.14916 30.81468 26319 ft 465 kts 176°
2026-04-26 00:53 36.11700 30.81757 26319 ft 465 kts 176°
2026-04-26 00:53 36.08494 30.82044 26319 ft 465 kts 176°
2026-04-26 00:53 36.05266 30.82334 26319 ft 465 kts 176°
2026-04-26 00:53 36.02034 30.82795 26312 ft 464 kts 172°
2026-04-26 00:54 35.98832 30.82912 26337 ft 461 kts 181°
2026-04-26 00:54 35.95635 30.82948 26319 ft 462 kts 179°
2026-04-26 00:54 35.92394 30.83005 26320 ft 463 kts 179°
2026-04-26 00:54 35.89147 30.83108 26319 ft 463 kts 178°
2026-04-26 00:55 35.85961 30.83224 26319 ft 464 kts 178°
2026-04-26 00:55 35.82727 30.83349 26319 ft 464 kts 178°
2026-04-26 00:55 35.79491 30.83479 26319 ft 465 kts 178°
2026-04-26 00:55 35.76274 30.83611 26319 ft 465 kts 178°
2026-04-26 00:56 35.73035 30.83745 26318 ft 465 kts 178°
2026-04-26 00:56 35.69780 30.83881 26318 ft 465 kts 178°
2026-04-26 00:56 35.66572 30.84014 26318 ft 465 kts 178°
2026-04-26 00:56 35.63316 30.84150 26318 ft 465 kts 178°
2026-04-26 00:57 35.60088 30.84284 26318 ft 465 kts 178°
2026-04-26 00:57 35.56844 30.84419 26318 ft 465 kts 178°
2026-04-26 00:57 35.53613 30.84553 26318 ft 465 kts 178°
2026-04-26 00:57 35.50379 30.84688 26318 ft 465 kts 178°
2026-04-26 00:58 35.47151 30.84822 26318 ft 465 kts 178°
2026-04-26 00:58 35.43923 30.84956 26318 ft 465 kts 178°
2026-04-26 00:58 35.40700 30.85089 26318 ft 465 kts 178°
2026-04-26 00:58 35.37465 30.85223 26318 ft 465 kts 178°
2026-04-26 00:59 35.34211 30.85358 26318 ft 465 kts 178°
2026-04-26 00:59 35.30974 30.85492 26318 ft 465 kts 178°
2026-04-26 00:59 35.27722 30.85626 26318 ft 465 kts 178°
2026-04-26 00:59 35.24487 30.85759 26318 ft 465 kts 178°
2026-04-26 01:00 35.21256 30.85893 26318 ft 465 kts 178°
2026-04-26 01:00 35.18044 30.86025 26318 ft 465 kts 178°
2026-04-26 01:00 35.14785 30.86160 26318 ft 465 kts 178°
2026-04-26 01:00 35.11577 30.86292 26318 ft 465 kts 178°
2026-04-26 01:01 35.08307 30.86426 26318 ft 465 kts 178°
2026-04-26 01:01 35.05076 30.86559 26318 ft 465 kts 178°
2026-04-26 01:01 35.01839 30.86691 26318 ft 465 kts 178°
2026-04-26 01:01 34.98599 30.86824 26318 ft 465 kts 178°
2026-04-26 01:02 34.95355 30.86958 26318 ft 465 kts 178°
2026-04-26 01:02 34.92146 30.87089 26318 ft 465 kts 178°
2026-04-26 01:02 34.88880 30.87223 26318 ft 465 kts 178°
2026-04-26 01:02 34.85679 30.87354 26318 ft 465 kts 178°
2026-04-26 01:03 34.82409 30.87487 26318 ft 465 kts 178°
2026-04-26 01:03 34.79210 30.87618 26318 ft 465 kts 178°
2026-04-26 01:03 34.75940 30.87751 26318 ft 465 kts 178°
2026-04-26 01:03 34.72717 30.87882 26318 ft 465 kts 178°
2026-04-26 01:04 34.69485 30.88014 26318 ft 465 kts 178°
2026-04-26 01:04 34.66273 30.88145 26318 ft 465 kts 178°
2026-04-26 01:04 34.63009 30.88277 26318 ft 465 kts 178°
2026-04-26 01:04 34.59786 30.88190 26288 ft 464 kts 189°
2026-04-26 01:05 34.56599 30.87752 26301 ft 462 kts 176°
2026-04-26 01:05 34.53447 30.88242 26356 ft 460 kts 174°
2026-04-26 01:05 34.50240 30.88553 26324 ft 462 kts 175°
2026-04-26 01:05 34.47027 30.88797 26318 ft 463 kts 177°
2026-04-26 01:06 34.43802 30.88991 26318 ft 463 kts 178°
2026-04-26 01:06 34.40566 30.89153 26318 ft 464 kts 178°
2026-04-26 01:06 34.37327 30.89300 26318 ft 465 kts 178°
2026-04-26 01:06 34.34118 30.89439 26318 ft 465 kts 178°
2026-04-26 01:07 34.30872 30.89575 26318 ft 465 kts 178°
2026-04-26 01:07 34.27666 30.89706 26318 ft 465 kts 178°
2026-04-26 01:07 34.24400 30.89839 26317 ft 465 kts 178°
2026-04-26 01:07 34.21195 30.89969 26317 ft 465 kts 178°
2026-04-26 01:08 34.17940 30.90101 26317 ft 466 kts 178°
2026-04-26 01:08 34.14685 30.90232 26318 ft 466 kts 178°
2026-04-26 01:08 34.11467 30.90361 26317 ft 466 kts 178°
2026-04-26 01:08 34.08239 30.90491 26317 ft 466 kts 178°
2026-04-26 01:09 34.04975 30.90622 26317 ft 466 kts 178°
2026-04-26 01:09 34.01761 30.90751 26317 ft 466 kts 178°
2026-04-26 01:09 33.98514 30.90881 26317 ft 466 kts 178°
2026-04-26 01:09 33.95243 30.91012 26317 ft 466 kts 178°
2026-04-26 01:10 33.92004 30.91141 26318 ft 466 kts 178°
2026-04-26 01:10 33.88811 30.91269 26317 ft 466 kts 178°
2026-04-26 01:10 33.85532 30.91400 26317 ft 466 kts 178°
2026-04-26 01:10 33.82285 30.91530 26317 ft 466 kts 178°
2026-04-26 01:11 33.79085 30.91657 26318 ft 466 kts 178°
2026-04-26 01:11 33.75840 30.91787 26318 ft 466 kts 178°
2026-04-26 01:11 33.72566 30.91917 26318 ft 466 kts 178°
2026-04-26 01:11 33.69365 30.92044 26318 ft 466 kts 178°
2026-04-26 01:12 33.66124 30.92173 26318 ft 466 kts 178°
2026-04-26 01:12 33.62864 30.92303 26318 ft 466 kts 178°
2026-04-26 01:12 33.59628 30.92431 26318 ft 466 kts 178°
2026-04-26 01:12 33.56376 30.92560 26318 ft 466 kts 178°
2026-04-26 01:13 33.53155 30.92688 26318 ft 466 kts 178°
2026-04-26 01:13 33.49894 30.92817 26318 ft 466 kts 178°
2026-04-26 01:13 33.46679 30.92945 26318 ft 466 kts 178°
2026-04-26 01:13 33.43436 30.93073 26318 ft 466 kts 178°
2026-04-26 01:14 33.40170 30.93202 26318 ft 466 kts 178°
2026-04-26 01:14 33.36956 30.93329 26318 ft 466 kts 178°
2026-04-26 01:14 33.33682 30.93458 26318 ft 466 kts 178°
2026-04-26 01:14 33.30463 30.93585 26318 ft 466 kts 178°
2026-04-26 01:15 33.27208 30.93714 26318 ft 466 kts 178°
2026-04-26 01:15 33.23951 30.93842 26318 ft 466 kts 178°
2026-04-26 01:15 33.20745 30.93968 26318 ft 466 kts 178°
2026-04-26 01:15 33.17504 30.94095 26318 ft 466 kts 178°
2026-04-26 01:16 33.14240 30.94224 26318 ft 466 kts 178°
2026-04-26 01:16 33.11006 30.94351 26318 ft 466 kts 178°
2026-04-26 01:16 33.07792 30.94477 26318 ft 466 kts 178°
2026-04-26 01:16 33.04529 30.94605 26318 ft 466 kts 178°
2026-04-26 01:17 33.01278 30.94732 26318 ft 466 kts 178°
2026-04-26 01:17 32.98019 30.94860 26318 ft 466 kts 178°
2026-04-26 01:17 32.94815 30.94985 26318 ft 466 kts 178°
2026-04-26 01:17 32.91566 30.95112 26318 ft 466 kts 178°
2026-04-26 01:18 32.88339 30.95238 26318 ft 466 kts 178°
2026-04-26 01:18 32.85085 30.95365 26318 ft 466 kts 178°
2026-04-26 01:18 32.81822 30.95492 26318 ft 466 kts 178°
2026-04-26 01:18 32.78611 30.95618 26318 ft 466 kts 178°
2026-04-26 01:19 32.75328 30.95745 26318 ft 466 kts 178°
2026-04-26 01:19 32.72114 30.95870 26318 ft 466 kts 178°
2026-04-26 01:19 32.68855 30.95997 26318 ft 466 kts 178°
2026-04-26 01:19 32.65592 30.96124 26317 ft 466 kts 178°
2026-04-26 01:20 32.62345 30.96250 26317 ft 466 kts 178°
2026-04-26 01:20 32.59132 30.96375 26317 ft 466 kts 178°
2026-04-26 01:20 32.55895 30.96500 26317 ft 466 kts 178°
2026-04-26 01:20 32.52623 30.96627 26317 ft 466 kts 178°
2026-04-26 01:21 32.49387 30.96752 26317 ft 466 kts 178°
2026-04-26 01:21 32.46163 30.96877 26317 ft 466 kts 178°
2026-04-26 01:21 32.42916 30.97003 26317 ft 466 kts 178°
2026-04-26 01:21 32.39650 30.97129 26317 ft 466 kts 178°
2026-04-26 01:22 32.36438 30.97253 26317 ft 466 kts 178°
2026-04-26 01:22 32.33155 30.97380 26317 ft 466 kts 178°
2026-04-26 01:22 32.29906 30.97505 26317 ft 466 kts 178°
2026-04-26 01:22 32.26704 30.97628 26317 ft 466 kts 178°
2026-04-26 01:23 32.23423 30.97755 26317 ft 466 kts 178°
2026-04-26 01:23 32.20522 30.97866 26317 ft 466 kts 178°
2026-04-26 01:23 32.16942 30.98004 26318 ft 466 kts 178°
2026-04-26 01:23 32.13684 30.98129 26318 ft 466 kts 178°
2026-04-26 01:24 32.10465 30.98253 26318 ft 466 kts 178°
2026-04-26 01:24 32.07184 30.98379 26318 ft 466 kts 178°
2026-04-26 01:24 32.03962 30.98502 26318 ft 467 kts 178°
2026-04-26 01:24 32.00726 30.98626 26318 ft 467 kts 178°
2026-04-26 01:25 31.97471 30.98751 26318 ft 467 kts 178°
2026-04-26 01:25 31.94194 30.98876 26318 ft 467 kts 178°
2026-04-26 01:25 31.90975 30.98999 26318 ft 467 kts 178°
2026-04-26 01:25 31.87685 30.99125 26318 ft 467 kts 178°
2026-04-26 01:26 31.84436 30.99249 26318 ft 467 kts 178°
2026-04-26 01:26 31.81222 30.99372 26318 ft 467 kts 178°
2026-04-26 01:26 31.77964 30.99496 26318 ft 467 kts 178°
2026-04-26 01:26 31.74709 30.99620 26318 ft 467 kts 178°
2026-04-26 01:27 31.71472 30.99743 26318 ft 467 kts 178°
2026-04-26 01:27 31.68227 30.99866 26318 ft 467 kts 178°
2026-04-26 01:27 31.64967 30.99990 26318 ft 467 kts 178°
2026-04-26 01:27 31.61714 31.00114 26318 ft 467 kts 178°
2026-04-26 01:28 31.58457 31.00238 26318 ft 467 kts 178°
2026-04-26 01:28 31.55229 31.00360 26318 ft 467 kts 178°
2026-04-26 01:28 31.51946 31.00484 26318 ft 467 kts 178°
2026-04-26 01:28 31.48727 31.00606 26318 ft 467 kts 178°
2026-04-26 01:29 31.45482 31.00729 26318 ft 467 kts 178°
2026-04-26 01:29 31.42191 31.00853 26318 ft 467 kts 178°
2026-04-26 01:29 31.38963 31.00976 26318 ft 467 kts 178°
2026-04-26 01:29 31.35704 31.01099 26318 ft 467 kts 178°
2026-04-26 01:30 31.32437 31.01222 26318 ft 467 kts 178°
2026-04-26 01:30 31.29191 31.01345 26318 ft 467 kts 178°
2026-04-26 01:30 31.25948 31.01467 26318 ft 467 kts 178°
2026-04-26 01:30 31.22660 31.01591 26318 ft 467 kts 178°
2026-04-26 01:31 31.19400 31.01714 26318 ft 467 kts 178°
2026-04-26 01:31 31.16144 31.01836 26318 ft 467 kts 178°
2026-04-26 01:31 31.12892 31.01958 26318 ft 467 kts 178°
2026-04-26 01:31 31.09633 31.02081 26318 ft 467 kts 178°
2026-04-26 01:32 31.06374 31.02203 26318 ft 467 kts 178°
2026-04-26 01:32 31.03113 31.02325 26318 ft 467 kts 178°
2026-04-26 01:32 30.99806 31.02449 26318 ft 467 kts 178°
2026-04-26 01:32 30.96564 31.02571 26318 ft 467 kts 178°
2026-04-26 01:33 30.93302 31.02693 26318 ft 467 kts 178°
2026-04-26 01:33 30.90072 31.02814 26318 ft 467 kts 178°
2026-04-26 01:33 30.86801 31.02936 26318 ft 467 kts 178°
2026-04-26 01:33 30.83519 31.03059 26318 ft 467 kts 178°
2026-04-26 01:34 30.80263 31.03180 26318 ft 467 kts 178°
2026-04-26 01:34 30.76984 31.03303 26318 ft 467 kts 178°
2026-04-26 01:34 30.73719 31.03424 26318 ft 467 kts 178°
2026-04-26 01:34 30.70457 31.03546 26318 ft 467 kts 178°
2026-04-26 01:35 30.67187 31.03668 26318 ft 467 kts 178°
2026-04-26 01:35 30.63897 31.03790 26318 ft 467 kts 178°
2026-04-26 01:35 30.60664 31.03910 26318 ft 467 kts 178°
2026-04-26 01:35 30.57379 31.04032 26318 ft 467 kts 178°
2026-04-26 01:36 30.54105 31.04154 26318 ft 467 kts 178°
2026-04-26 01:36 30.50836 31.04275 26318 ft 467 kts 178°
2026-04-26 01:36 30.47562 31.04397 26318 ft 467 kts 178°
2026-04-26 01:37 30.41037 31.04638 26318 ft 467 kts 178°
2026-04-26 01:37 30.37812 31.04758 26318 ft 467 kts 178°
2026-04-26 01:37 30.34532 31.04879 26318 ft 467 kts 178°
2026-04-26 01:37 30.31241 31.05001 26318 ft 467 kts 178°
2026-04-26 01:38 30.28008 31.05120 26318 ft 467 kts 178°
2026-04-26 01:38 30.24750 31.05241 26318 ft 467 kts 178°
2026-04-26 01:38 30.21469 31.05362 26318 ft 467 kts 178°
2026-04-26 01:38 30.18196 31.05483 26318 ft 467 kts 178°
2026-04-26 01:39 30.14956 31.05602 26318 ft 467 kts 178°
2026-04-26 01:39 30.11655 31.05723 26318 ft 467 kts 178°
2026-04-26 01:39 30.08418 31.05842 26318 ft 467 kts 178°
2026-04-26 01:39 30.05148 31.05963 26318 ft 467 kts 178°
2026-04-26 01:40 30.01903 31.06082 26318 ft 467 kts 178°
2026-04-26 01:40 29.98633 31.06202 26318 ft 467 kts 178°
2026-04-26 01:40 29.95361 31.06322 26318 ft 467 kts 178°
2026-04-26 01:40 29.92091 31.06442 26318 ft 467 kts 178°
2026-04-26 01:41 29.88813 31.06562 26318 ft 467 kts 178°
2026-04-26 01:41 29.85571 31.06680 26318 ft 467 kts 178°
2026-04-26 01:41 29.82305 31.06800 26318 ft 467 kts 178°
2026-04-26 01:41 29.79039 31.06920 26318 ft 467 kts 178°
2026-04-26 01:42 29.75773 31.07039 26318 ft 467 kts 178°
2026-04-26 01:42 29.72512 31.07158 26318 ft 467 kts 178°
2026-04-26 01:42 29.69271 31.07276 26318 ft 467 kts 178°
2026-04-26 01:42 29.65996 31.07396 26318 ft 467 kts 178°
2026-04-26 01:43 29.62743 31.07514 26318 ft 467 kts 178°
2026-04-26 01:43 29.59514 31.07632 26318 ft 467 kts 178°
2026-04-26 01:43 29.56221 31.07752 26318 ft 467 kts 178°
2026-04-26 01:43 29.52981 31.07870 26318 ft 467 kts 178°
2026-04-26 01:44 29.49737 31.07988 26318 ft 467 kts 178°
2026-04-26 01:44 29.46450 31.08107 26318 ft 467 kts 178°
2026-04-26 01:44 29.43181 31.08226 26318 ft 468 kts 178°
2026-04-26 01:44 29.39935 31.08344 26318 ft 468 kts 178°
2026-04-26 01:45 29.36673 31.08462 26318 ft 468 kts 178°
2026-04-26 01:45 29.33409 31.08580 26318 ft 468 kts 178°
2026-04-26 01:45 29.30143 31.08698 26318 ft 468 kts 178°
2026-04-26 01:45 29.27070 31.08810 26318 ft 468 kts 178°
2026-04-26 01:46 29.23601 31.08935 26318 ft 468 kts 178°
2026-04-26 01:46 29.20334 31.09053 26318 ft 468 kts 178°
2026-04-26 01:46 29.17072 31.09171 26318 ft 468 kts 178°
2026-04-26 01:46 29.14124 31.09277 26318 ft 468 kts 178°
2026-04-26 01:47 29.10541 31.09407 26318 ft 468 kts 178°
2026-04-26 01:47 29.07294 31.09524 26318 ft 468 kts 178°
2026-04-26 01:47 29.04034 31.09641 26318 ft 468 kts 178°
2026-04-26 01:47 29.00771 31.09759 26318 ft 468 kts 178°
2026-04-26 01:48 28.97507 31.09876 26318 ft 468 kts 178°
2026-04-26 01:48 28.94243 31.09994 26318 ft 468 kts 178°
2026-04-26 01:48 28.90975 31.10111 26318 ft 468 kts 178°
2026-04-26 01:48 28.87690 31.10229 26318 ft 468 kts 178°
2026-04-26 01:49 28.84423 31.10346 26318 ft 468 kts 178°
2026-04-26 01:49 28.81173 31.10463 26318 ft 468 kts 178°
2026-04-26 01:49 28.77897 31.10581 26318 ft 468 kts 178°
2026-04-26 01:49 28.74654 31.10697 26318 ft 468 kts 178°
2026-04-26 01:50 28.71405 31.10813 26318 ft 468 kts 178°
2026-04-26 01:50 28.68147 31.10930 26318 ft 468 kts 178°
2026-04-26 01:50 28.64888 31.11046 26318 ft 468 kts 178°
2026-04-26 01:50 28.61630 31.11163 26318 ft 468 kts 178°
2026-04-26 01:51 28.58371 31.11279 26318 ft 468 kts 178°
2026-04-26 01:51 28.55091 31.11397 26318 ft 468 kts 178°
2026-04-26 01:51 28.51841 31.11513 26318 ft 468 kts 178°
2026-04-26 01:51 28.48556 31.11630 26318 ft 468 kts 178°
2026-04-26 01:52 28.45297 31.11746 26318 ft 468 kts 178°
2026-04-26 01:52 28.42050 31.11861 26318 ft 468 kts 178°
2026-04-26 01:52 28.38809 31.11977 26318 ft 468 kts 178°
2026-04-26 01:52 28.35553 31.12093 26318 ft 468 kts 178°
2026-04-26 01:53 28.32274 31.12209 26318 ft 468 kts 178°
2026-04-26 01:53 28.29019 31.12325 26318 ft 468 kts 178°
2026-04-26 01:53 28.25767 31.12440 26318 ft 468 kts 178°
2026-04-26 01:53 28.22492 31.12557 26318 ft 468 kts 178°
2026-04-26 01:54 28.19233 31.12672 26318 ft 468 kts 178°
2026-04-26 01:54 28.15941 31.12789 26318 ft 468 kts 178°
2026-04-26 01:54 28.12711 31.12903 26318 ft 468 kts 178°
2026-04-26 01:54 28.09435 31.13019 26318 ft 468 kts 178°
2026-04-26 01:55 28.06143 31.13135 26318 ft 468 kts 178°
2026-04-26 01:55 28.02913 31.13249 26318 ft 468 kts 178°
2026-04-26 01:55 27.99621 31.13366 26318 ft 468 kts 178°
2026-04-26 01:55 27.96386 31.13480 26318 ft 468 kts 178°
2026-04-26 01:56 27.93085 31.13596 26318 ft 468 kts 178°
2026-04-26 01:56 27.89820 31.13712 26318 ft 468 kts 178°
2026-04-26 01:56 27.86565 31.13826 26318 ft 468 kts 178°
2026-04-26 01:56 27.83299 31.13941 26318 ft 468 kts 178°
2026-04-26 01:57 27.80047 31.14056 26318 ft 468 kts 178°
2026-04-26 01:57 27.76804 31.14170 26318 ft 468 kts 178°
2026-04-26 01:57 27.73491 31.14286 26318 ft 468 kts 178°
2026-04-26 01:57 27.70268 31.14400 26318 ft 468 kts 178°
2026-04-26 01:58 27.66962 31.14516 26318 ft 468 kts 178°
2026-04-26 01:58 27.63713 31.14630 26318 ft 468 kts 178°
2026-04-26 01:58 27.60459 31.14744 26318 ft 468 kts 178°
2026-04-26 01:58 27.57184 31.14859 26318 ft 468 kts 178°
2026-04-26 01:59 27.53914 31.14973 26318 ft 468 kts 178°
2026-04-26 01:59 27.50685 31.15086 26318 ft 468 kts 178°
2026-04-26 01:59 27.47424 31.15200 26318 ft 468 kts 178°
2026-04-26 01:59 27.44162 31.15314 26318 ft 468 kts 178°
2026-04-26 02:00 27.40875 31.15429 26318 ft 468 kts 178°
2026-04-26 02:00 27.37589 31.15544 26318 ft 468 kts 178°
2026-04-26 02:00 27.34347 31.15657 26318 ft 468 kts 178°
2026-04-26 02:00 27.31085 31.15771 26318 ft 468 kts 178°
2026-04-26 02:01 27.27826 31.15885 26318 ft 468 kts 178°
2026-04-26 02:01 27.24536 31.15999 26318 ft 468 kts 178°
2026-04-26 02:01 27.21299 31.16112 26318 ft 468 kts 178°
2026-04-26 02:01 27.18030 31.16226 26318 ft 468 kts 178°
2026-04-26 02:02 27.14736 31.16340 26318 ft 468 kts 178°
2026-04-26 02:02 27.11462 31.16454 26318 ft 468 kts 178°
2026-04-26 02:02 27.08190 31.16568 26318 ft 468 kts 178°
2026-04-26 02:02 27.04915 31.16682 26318 ft 468 kts 178°
2026-04-26 02:03 27.01669 31.16794 26318 ft 468 kts 178°
2026-04-26 02:03 26.98391 31.16908 26318 ft 468 kts 178°
2026-04-26 02:03 26.95138 31.17021 26318 ft 468 kts 178°
2026-04-26 02:03 26.91852 31.17135 26318 ft 468 kts 178°
2026-04-26 02:04 26.88576 31.17248 26318 ft 468 kts 178°
2026-04-26 02:04 26.85322 31.17360 26318 ft 468 kts 178°
2026-04-26 02:04 26.82051 31.17474 26318 ft 468 kts 178°
2026-04-26 02:04 26.78772 31.17587 26318 ft 468 kts 178°
2026-04-26 02:05 26.75518 31.17699 26318 ft 468 kts 178°
2026-04-26 02:05 26.72238 31.17813 26318 ft 468 kts 178°
2026-04-26 02:05 26.68979 31.17925 26318 ft 469 kts 178°
2026-04-26 02:05 26.65734 31.18037 26317 ft 469 kts 178°
2026-04-26 02:06 26.62465 31.18150 26317 ft 469 kts 178°
2026-04-26 02:06 26.59165 31.18263 26318 ft 469 kts 178°
2026-04-26 02:06 26.55924 31.18375 26318 ft 469 kts 178°
2026-04-26 02:06 26.52629 31.18488 26318 ft 469 kts 178°
2026-04-26 02:07 26.49376 31.18600 26317 ft 469 kts 178°
2026-04-26 02:07 26.46138 31.18711 26318 ft 469 kts 178°
2026-04-26 02:07 26.42857 31.18824 26318 ft 469 kts 178°
2026-04-26 02:07 26.39585 31.18936 26317 ft 469 kts 178°
2026-04-26 02:08 26.36290 31.19049 26317 ft 469 kts 178°
2026-04-26 02:08 26.33058 31.19160 26317 ft 469 kts 178°
2026-04-26 02:08 26.29771 31.19273 26318 ft 469 kts 178°
2026-04-26 02:08 26.26495 31.19385 26317 ft 469 kts 178°
2026-04-26 02:09 26.23253 31.19496 26317 ft 469 kts 178°
2026-04-26 02:09 26.19979 31.19608 26317 ft 469 kts 178°
2026-04-26 02:09 26.16709 31.19720 26318 ft 469 kts 178°
2026-04-26 02:09 26.13423 31.19832 26317 ft 469 kts 178°
2026-04-26 02:10 26.10150 31.19944 26317 ft 469 kts 178°
2026-04-26 02:10 26.06909 31.20054 26317 ft 469 kts 178°
2026-04-26 02:10 26.03613 31.20167 26317 ft 469 kts 178°
2026-04-26 02:10 26.00364 31.20278 26317 ft 469 kts 178°
2026-04-26 02:11 25.97107 31.20389 26317 ft 469 kts 178°
2026-04-26 02:11 25.93839 31.20500 26317 ft 469 kts 178°
2026-04-26 02:11 25.90570 31.20611 26318 ft 469 kts 178°
2026-04-26 02:11 25.87277 31.20723 26317 ft 469 kts 178°
2026-04-26 02:12 25.83988 31.20835 26317 ft 469 kts 178°
2026-04-26 02:12 25.80729 31.20946 26317 ft 469 kts 178°
2026-04-26 02:12 25.77482 31.21056 26317 ft 469 kts 178°
2026-04-26 02:12 25.74170 31.21168 26317 ft 469 kts 178°
2026-04-26 02:13 25.70904 31.21279 26317 ft 469 kts 178°
2026-04-26 02:13 25.67662 31.21389 26317 ft 469 kts 178°
2026-04-26 02:13 25.64381 31.21500 26317 ft 469 kts 178°
2026-04-26 02:13 25.61130 31.21610 26317 ft 469 kts 178°
2026-04-26 02:14 25.57844 31.21722 26317 ft 469 kts 178°
2026-04-26 02:14 25.54551 31.21833 26317 ft 469 kts 178°
2026-04-26 02:14 25.51288 31.21943 26317 ft 469 kts 178°
2026-04-26 02:14 25.47992 31.22055 26317 ft 469 kts 178°
2026-04-26 02:15 25.44758 31.22164 26317 ft 469 kts 178°
2026-04-26 02:15 25.41476 31.22275 26317 ft 469 kts 178°
2026-04-26 02:15 25.38178 31.22386 26317 ft 469 kts 178°
2026-04-26 02:15 25.34920 31.22496 26317 ft 469 kts 178°
2026-04-26 02:16 25.31666 31.22606 26317 ft 469 kts 178°
2026-04-26 02:16 25.28357 31.22717 26317 ft 469 kts 178°
2026-04-26 02:16 25.25127 31.22826 26317 ft 469 kts 178°
2026-04-26 02:16 25.21822 31.22937 26317 ft 469 kts 178°
2026-04-26 02:17 25.18589 31.23046 26317 ft 469 kts 178°
2026-04-26 02:17 25.15297 31.23156 26317 ft 469 kts 178°
2026-04-26 02:17 25.12019 31.23267 26317 ft 469 kts 178°
2026-04-26 02:17 25.08759 31.23376 26317 ft 469 kts 178°
2026-04-26 02:18 25.05482 31.23486 26317 ft 469 kts 178°
2026-04-26 02:18 25.02185 31.23597 26317 ft 469 kts 178°
2026-04-26 02:18 24.98932 31.23706 26317 ft 469 kts 178°
2026-04-26 02:18 24.95652 31.23815 26317 ft 469 kts 178°
2026-04-26 02:19 24.92368 31.23925 26317 ft 469 kts 178°
2026-04-26 02:19 24.89121 31.24034 26317 ft 469 kts 178°
2026-04-26 02:19 24.85822 31.24145 26317 ft 469 kts 178°
2026-04-26 02:19 24.82555 31.24254 26317 ft 469 kts 178°
2026-04-26 02:20 24.79259 31.24364 26317 ft 469 kts 178°
2026-04-26 02:20 24.75983 31.24473 26317 ft 469 kts 178°
2026-04-26 02:20 24.72726 31.24582 26317 ft 469 kts 178°
2026-04-26 02:20 24.69461 31.24691 26317 ft 469 kts 178°
2026-04-26 02:21 24.66147 31.24801 26318 ft 469 kts 178°
2026-04-26 02:21 24.62904 31.24910 26317 ft 469 kts 178°
2026-04-26 02:21 24.59644 31.25018 26317 ft 469 kts 178°
2026-04-26 02:21 24.56349 31.25128 26318 ft 469 kts 178°
2026-04-26 02:22 24.53075 31.25237 26318 ft 469 kts 178°
2026-04-26 02:22 24.49811 31.25345 26318 ft 469 kts 178°
2026-04-26 02:22 24.46546 31.25454 26318 ft 469 kts 178°
2026-04-26 02:22 24.43275 31.25562 26318 ft 469 kts 178°
2026-04-26 02:23 24.39987 31.25672 26318 ft 469 kts 178°
2026-04-26 02:23 24.36682 31.25781 26318 ft 469 kts 178°
2026-04-26 02:23 24.33440 31.25889 26318 ft 469 kts 178°
2026-04-26 02:23 24.30162 31.25998 26318 ft 469 kts 178°
2026-04-26 02:24 24.26869 31.26107 26318 ft 469 kts 178°
2026-04-26 02:24 24.23577 31.26216 26318 ft 469 kts 178°
2026-04-26 02:24 24.20320 31.26324 26318 ft 469 kts 178°
2026-04-26 02:24 24.17030 31.26433 26318 ft 469 kts 178°
2026-04-26 02:25 24.13770 31.26540 26318 ft 469 kts 178°
2026-04-26 02:25 24.10496 31.26648 26318 ft 469 kts 178°
2026-04-26 02:25 24.07192 31.26758 26318 ft 469 kts 178°
2026-04-26 02:25 24.03946 31.26865 26318 ft 469 kts 178°
2026-04-26 02:26 24.00656 31.26973 26318 ft 470 kts 178°
2026-04-26 02:26 23.97365 31.27082 26318 ft 470 kts 178°
2026-04-26 02:26 23.94108 31.27189 26318 ft 470 kts 178°
2026-04-26 02:26 23.90812 31.27298 26318 ft 470 kts 178°
2026-04-26 02:27 23.87526 31.27406 26318 ft 470 kts 178°
2026-04-26 02:27 23.84252 31.27514 26318 ft 470 kts 178°
2026-04-26 02:27 23.80990 31.27621 26318 ft 470 kts 178°
2026-04-26 02:27 23.77710 31.27729 26318 ft 470 kts 178°
2026-04-26 02:28 23.74413 31.27838 26318 ft 470 kts 178°
2026-04-26 02:28 23.71164 31.27944 26318 ft 470 kts 178°
2026-04-26 02:28 23.67883 31.28052 26318 ft 470 kts 178°
2026-04-26 02:28 23.64583 31.28160 26318 ft 470 kts 178°
2026-04-26 02:29 23.61313 31.28268 26318 ft 470 kts 178°
2026-04-26 02:29 23.58046 31.28374 26318 ft 470 kts 178°
2026-04-26 02:29 23.54782 31.28481 26318 ft 470 kts 178°
2026-04-26 02:29 23.51499 31.28589 26318 ft 470 kts 178°
2026-04-26 02:30 23.48204 31.28697 26318 ft 470 kts 178°
2026-04-26 02:30 23.44939 31.28804 26318 ft 470 kts 178°
2026-04-26 02:30 23.41672 31.28911 26318 ft 470 kts 178°
2026-04-26 02:30 23.38386 31.29018 26318 ft 470 kts 178°
2026-04-26 02:31 23.35117 31.29125 26318 ft 470 kts 178°
2026-04-26 02:31 23.31841 31.29232 26318 ft 470 kts 178°
2026-04-26 02:31 23.28548 31.29339 26318 ft 470 kts 178°
2026-04-26 02:31 23.25289 31.29446 26318 ft 470 kts 178°
2026-04-26 02:32 23.22007 31.29553 26318 ft 470 kts 178°
2026-04-26 02:32 23.18696 31.29660 26318 ft 470 kts 178°
2026-04-26 02:32 23.15459 31.29766 26318 ft 470 kts 178°
2026-04-26 02:32 23.12183 31.29873 26318 ft 470 kts 178°
2026-04-26 02:33 23.08889 31.29980 26318 ft 470 kts 178°
2026-04-26 02:33 23.05598 31.30087 26318 ft 470 kts 178°
2026-04-26 02:33 23.02308 31.30194 26318 ft 470 kts 178°
2026-04-26 02:33 22.99053 31.30300 26318 ft 470 kts 178°
2026-04-26 02:34 22.95755 31.30407 26318 ft 470 kts 178°
2026-04-26 02:34 22.92490 31.30513 26318 ft 470 kts 178°
2026-04-26 02:34 22.89206 31.30619 26318 ft 470 kts 178°
2026-04-26 02:34 22.85954 31.30725 26318 ft 470 kts 178°
2026-04-26 02:35 22.82669 31.30832 26318 ft 470 kts 178°
2026-04-26 02:35 22.79367 31.30938 26318 ft 470 kts 178°
2026-04-26 02:35 22.76083 31.31045 26318 ft 470 kts 178°
2026-04-26 02:35 22.72822 31.31150 26318 ft 470 kts 178°
2026-04-26 02:36 22.69522 31.31257 26318 ft 470 kts 178°
2026-04-26 02:36 22.66275 31.31362 26318 ft 470 kts 178°
2026-04-26 02:36 22.62972 31.31469 26318 ft 470 kts 178°
2026-04-26 02:36 22.59716 31.31574 26318 ft 470 kts 178°
2026-04-26 02:37 22.56454 31.31679 26318 ft 470 kts 178°
2026-04-26 02:37 22.53141 31.31786 26318 ft 470 kts 178°
2026-04-26 02:37 22.49891 31.31891 26318 ft 470 kts 178°
2026-04-26 02:37 22.46586 31.31998 26318 ft 470 kts 178°
2026-04-26 02:38 22.43299 31.32104 26318 ft 470 kts 178°
2026-04-26 02:38 22.40029 31.32209 26318 ft 470 kts 178°
2026-04-26 02:38 22.36767 31.32314 26318 ft 470 kts 178°
2026-04-26 02:38 22.33468 31.32420 26318 ft 470 kts 178°
2026-04-26 02:39 22.30219 31.32525 26318 ft 470 kts 178°
2026-04-26 02:39 22.26944 31.32630 26318 ft 470 kts 178°
2026-04-26 02:39 22.23650 31.32736 26318 ft 470 kts 178°
2026-04-26 02:39 22.20369 31.32841 26318 ft 470 kts 178°
2026-04-26 02:40 22.17098 31.32946 26318 ft 470 kts 178°
2026-04-26 02:40 22.13812 31.33052 26318 ft 470 kts 178°
2026-04-26 02:40 22.10534 31.33157 26318 ft 470 kts 178°
2026-04-26 02:40 22.07256 31.33262 26318 ft 470 kts 178°
2026-04-26 02:41 22.03976 31.33367 26318 ft 470 kts 178°
2026-04-26 02:41 22.00701 31.33472 26318 ft 470 kts 178°
2026-04-26 02:41 21.97450 31.33576 26318 ft 470 kts 178°
2026-04-26 02:41 21.94160 31.33682 26318 ft 470 kts 178°
2026-04-26 02:42 21.90873 31.33787 26318 ft 470 kts 178°
2026-04-26 02:42 21.87575 31.33892 26318 ft 470 kts 178°
2026-04-26 02:42 21.84324 31.33996 26318 ft 470 kts 178°
2026-04-26 02:42 21.81010 31.34102 26318 ft 470 kts 178°
2026-04-26 02:43 21.74431 31.34312 26318 ft 470 kts 178°
2026-04-26 02:43 21.71159 31.34416 26318 ft 470 kts 178°
2026-04-26 02:43 21.67864 31.34521 26318 ft 470 kts 178°
2026-04-26 02:44 21.64591 31.34626 26318 ft 470 kts 178°
2026-04-26 02:44 21.61318 31.34730 26318 ft 470 kts 178°
2026-04-26 02:44 21.58027 31.34835 26318 ft 470 kts 178°
2026-04-26 02:44 21.54775 31.34938 26318 ft 470 kts 178°
2026-04-26 02:45 21.51467 31.35044 26317 ft 470 kts 178°
2026-04-26 02:45 21.48199 31.35148 26317 ft 470 kts 178°
2026-04-26 02:45 21.44920 31.35252 26317 ft 470 kts 178°
2026-04-26 02:45 21.41615 31.35357 26317 ft 470 kts 178°
2026-04-26 02:46 21.38359 31.35460 26318 ft 470 kts 178°
2026-04-26 02:46 21.35069 31.35565 26317 ft 470 kts 178°
2026-04-26 02:46 21.31780 31.35669 26317 ft 470 kts 178°
2026-04-26 02:46 21.28517 31.35772 26318 ft 470 kts 178°
2026-04-26 02:47 21.25215 31.35877 26318 ft 470 kts 178°
2026-04-26 02:47 21.21927 31.35982 26318 ft 470 kts 178°
2026-04-26 02:47 21.18594 31.36087 26318 ft 470 kts 178°
2026-04-26 02:47 21.15307 31.36191 26318 ft 470 kts 178°
2026-04-26 02:48 21.12034 31.36295 26318 ft 470 kts 178°
2026-04-26 02:48 21.08734 31.36399 26317 ft 471 kts 178°
2026-04-26 02:48 21.05464 31.36503 26317 ft 471 kts 178°
2026-04-26 02:48 21.02151 31.36607 26317 ft 471 kts 178°
2026-04-26 02:49 20.98879 31.36711 26317 ft 471 kts 178°
2026-04-26 02:49 20.95579 31.36815 26317 ft 471 kts 178°
2026-04-26 02:49 20.92334 31.36917 26317 ft 471 kts 178°
2026-04-26 02:49 20.89026 31.37022 26317 ft 471 kts 178°
2026-04-26 02:50 20.85728 31.37126 26317 ft 471 kts 178°
2026-04-26 02:50 20.82423 31.37230 26317 ft 471 kts 178°
2026-04-26 02:50 20.79124 31.37334 26317 ft 471 kts 178°
2026-04-26 02:50 20.75874 31.37436 26317 ft 471 kts 178°
2026-04-26 02:51 20.72545 31.37541 26317 ft 471 kts 178°
2026-04-26 02:51 20.69284 31.37643 26317 ft 471 kts 178°
2026-04-26 02:51 20.65998 31.37747 26318 ft 471 kts 178°
2026-04-26 02:51 20.62678 31.37851 26317 ft 471 kts 178°
2026-04-26 02:52 20.59419 31.37953 26317 ft 471 kts 178°
2026-04-26 02:52 20.56147 31.38056 26318 ft 471 kts 178°
2026-04-26 02:52 20.52819 31.38161 26318 ft 471 kts 178°
2026-04-26 02:52 20.49563 31.38263 26318 ft 471 kts 178°
2026-04-26 02:53 20.46241 31.38367 26318 ft 471 kts 178°
2026-04-26 02:53 20.42966 31.38469 26318 ft 471 kts 178°
2026-04-26 02:53 20.39696 31.38572 26318 ft 471 kts 178°
2026-04-26 02:53 20.36399 31.38675 26318 ft 471 kts 178°
2026-04-26 02:54 20.33142 31.38777 26318 ft 471 kts 178°
2026-04-26 02:54 20.29820 31.38881 26318 ft 471 kts 178°
2026-04-26 02:54 20.26546 31.38983 26318 ft 471 kts 178°
2026-04-26 02:54 20.23248 31.39086 26318 ft 471 kts 178°
2026-04-26 02:55 20.19971 31.39188 26318 ft 471 kts 178°
2026-04-26 02:55 20.16671 31.39292 26318 ft 471 kts 178°
2026-04-26 02:55 20.13380 31.39395 26318 ft 471 kts 178°
2026-04-26 02:55 20.10126 31.39496 26318 ft 471 kts 178°
2026-04-26 02:56 20.06802 31.39600 26318 ft 471 kts 178°
2026-04-26 02:56 20.03551 31.39701 26318 ft 471 kts 178°
2026-04-26 02:56 20.00243 31.39804 26318 ft 471 kts 178°
2026-04-26 02:56 19.96953 31.39907 26318 ft 471 kts 178°
2026-04-26 02:57 19.93672 31.40009 26318 ft 471 kts 178°
2026-04-26 02:57 19.90381 31.40112 26318 ft 471 kts 178°
2026-04-26 02:57 19.87082 31.40215 26317 ft 471 kts 178°
2026-04-26 02:57 19.83776 31.40317 26318 ft 471 kts 178°
2026-04-26 02:58 19.80520 31.40418 26318 ft 471 kts 178°
2026-04-26 02:58 19.77200 31.40522 26317 ft 471 kts 178°
2026-04-26 02:58 19.73957 31.40623 26317 ft 471 kts 178°
2026-04-26 02:58 19.70663 31.40725 26318 ft 471 kts 178°
2026-04-26 02:59 19.67355 31.40828 26317 ft 471 kts 178°
2026-04-26 02:59 19.64087 31.40929 26317 ft 471 kts 178°
2026-04-26 02:59 19.60792 31.41032 26317 ft 471 kts 178°
2026-04-26 02:59 19.57494 31.41134 26318 ft 471 kts 178°
2026-04-26 03:00 19.54228 31.41235 26318 ft 471 kts 178°
2026-04-26 03:00 19.50934 31.41337 26317 ft 471 kts 178°
2026-04-26 03:00 19.47677 31.41438 26317 ft 471 kts 178°
2026-04-26 03:00 19.44365 31.41540 26318 ft 471 kts 178°
2026-04-26 03:01 19.41059 31.41643 26318 ft 471 kts 178°
2026-04-26 03:01 19.37774 31.41745 26318 ft 471 kts 178°
2026-04-26 03:01 19.34501 31.41846 26317 ft 471 kts 178°
2026-04-26 03:01 19.31189 31.41948 26318 ft 471 kts 178°
2026-04-26 03:02 19.27934 31.42049 26318 ft 471 kts 178°
2026-04-26 03:02 19.24635 31.42151 26318 ft 471 kts 178°
2026-04-26 03:02 19.21329 31.42253 26318 ft 471 kts 178°
2026-04-26 03:02 19.18053 31.42354 26318 ft 471 kts 178°
2026-04-26 03:03 19.14761 31.42455 26318 ft 471 kts 178°
2026-04-26 03:03 19.11497 31.42556 26318 ft 471 kts 178°
2026-04-26 03:03 19.08180 31.42659 26318 ft 471 kts 178°
2026-04-26 03:03 19.04905 31.42759 26318 ft 471 kts 178°
2026-04-26 03:04 19.01612 31.42861 26318 ft 471 kts 178°
2026-04-26 03:04 18.98346 31.42961 26318 ft 471 kts 178°
2026-04-26 03:04 18.95050 31.43063 26318 ft 471 kts 178°
2026-04-26 03:04 18.91745 31.43164 26318 ft 471 kts 178°
2026-04-26 03:05 18.88455 31.43266 26318 ft 471 kts 178°
2026-04-26 03:05 18.85159 31.43367 26318 ft 471 kts 178°
2026-04-26 03:05 18.81873 31.43468 26318 ft 471 kts 178°
2026-04-26 03:05 18.78626 31.43568 26318 ft 471 kts 178°
2026-04-26 03:06 18.75311 31.43669 26318 ft 471 kts 178°
2026-04-26 03:06 18.72032 31.43770 26318 ft 471 kts 178°
2026-04-26 03:06 18.68752 31.43871 26318 ft 471 kts 178°
2026-04-26 03:06 18.65427 31.43973 26318 ft 471 kts 178°
2026-04-26 03:07 18.62177 31.44072 26318 ft 471 kts 178°
2026-04-26 03:07 18.58862 31.44174 26318 ft 471 kts 178°
2026-04-26 03:07 18.55572 31.44275 26318 ft 471 kts 178°
2026-04-26 03:07 18.52290 31.44375 26318 ft 471 kts 178°
2026-04-26 03:08 18.48996 31.44476 26318 ft 471 kts 178°
2026-04-26 03:08 18.45731 31.44576 26318 ft 471 kts 178°
2026-04-26 03:08 18.42439 31.44677 26318 ft 471 kts 178°
2026-04-26 03:08 18.39159 31.44777 26318 ft 471 kts 178°
2026-04-26 03:09 18.35838 31.44879 26318 ft 471 kts 178°
2026-04-26 03:09 18.32571 31.44978 26318 ft 471 kts 178°
2026-04-26 03:09 18.29255 31.45080 26318 ft 471 kts 178°
2026-04-26 03:09 18.25960 31.45181 26318 ft 471 kts 178°
2026-04-26 03:10 18.22673 31.45281 26318 ft 471 kts 178°
2026-04-26 03:10 18.20508 31.45347 26318 ft 471 kts 178°